Tracking 18984 objects as of 23-Feb-2018
HD Live streaming from Space Station
objects crossing your sky now

COSMOS 2251 DEB

Track COSMOS 2251 DEB now!
10-day predictions


NORAD ID: 33899
Int'l Code: 1993-036DC
Perigee: 692.6 km
Apogee: 799.0 km
Inclination: 74.1 °
Period: 99.6 minutes
Semi major axis: 7116 km
RCS: 0.032 m2 (small)
Launch date: June 16, 1993
Source: Commonwealth of Independent States (former USSR) (CIS)
Launch site: PLESETSK MISSILE AND SPACE COMPLEX (PKMTR)

Note: This is SATELLITE DEBRIS
aabbcc
Your satellite tracking list
Your tracking list is empty




NASA's NSSDC Master Catalog

Two Line Element Set (TLE):
1 33899U 93036DC  18053.93074306 +.00000357 +00000-0 +10418-3 0  9994
2 33899 074.0585 027.3878 0074787 097.2717 294.7320 14.46022699475459
Source of the keplerian elements: AFSPC